Location: Newark
(45.4333°N, 10.9833°E)
Time: 12:47:31
(UTC+00:00)

Envisat - Visible Passes

Search period start: 14 December 2019 00:00
Search period end: 24 December 2019 00:00
Orbit: 764 x 766 km, 98.1° (Epoch: 14 December)

Date Brightness Start Highest point End Pass type
(mag) Time Alt. Az. Time Alt. Az. Time Alt. Az.
14 Dec 4.6 05:33:01 10° NNE 05:37:47 39° E 05:42:31 10° SSE visible
14 Dec 3.0 16:49:31 10° SSE 16:54:32 63° ENE 16:59:34 10° N visible
14 Dec 5.7 18:30:41 10° SW 18:34:00 17° W 18:37:21 10° NW visible
15 Dec 5.9 04:57:10 10° NE 05:00:43 19° E 05:04:13 10° SE visible
15 Dec 3.7 16:13:33 10° SE 16:17:58 31° ENE 16:22:23 10° N visible
15 Dec 4.5 17:52:14 10° SSW 17:56:54 36° W 18:01:35 10° NNW visible
16 Dec 3.5 05:58:18 10° NNE 06:03:23 67° ESE 06:08:26 10° S visible
16 Dec 3.1 17:14:55 10° S 17:20:00 78° WSW 17:25:07 10° NNW visible
17 Dec 5.0 05:21:55 10° NNE 05:26:26 31° E 05:30:55 10° SSE visible
17 Dec 3.1 16:38:24 10° SE 16:43:17 51° ENE 16:48:13 10° N visible
17 Dec 5.4 18:18:44 10° SW 18:22:35 22° W 18:26:29 10° NW visible
18 Dec 6.0 04:46:27 10° NE 04:49:17 15° E 04:52:07 10° ESE visible
18 Dec 4.0 16:02:41 10° ESE 16:06:47 25° ENE 16:10:55 10° N visible
18 Dec 4.1 17:40:42 10° S 17:45:33 45° W 17:50:27 10° NNW visible
19 Dec 3.9 05:47:05 10° NNE 05:52:04 53° E 05:57:01 10° S visible
19 Dec 2.9 17:03:38 10° SSE 17:08:43 85° ENE 17:13:50 10° NNW visible
19 Dec 6.1 18:46:16 10° WSW 18:48:24 13° W 18:50:34 10° WNW visible
20 Dec 5.4 05:10:53 10° NE 05:15:04 25° E 05:19:14 10° SSE visible
20 Dec 3.4 16:27:20 10° SE 16:32:04 41° ENE 16:36:49 10° N visible
20 Dec 5.1 18:06:57 10° SSW 18:11:13 27° W 18:15:31 10° NW visible
21 Dec 6.2 04:36:08 10° ENE 04:37:51 12° E 04:39:35 10° ESE visible
21 Dec 3.1 06:12:29 10° NNE 06:17:36 89° ESE 06:22:41 10° SSW visible
21 Dec 3.6 17:29:15 10° S 17:34:14 57° W 17:39:16 10° NNW visible
22 Dec 4.4 05:35:54 10° NNE 05:40:45 42° E 05:45:33 10° S visible
22 Dec 2.9 16:52:25 10° SSE 16:57:27 69° ENE 17:02:31 10° N visible
22 Dec 5.8 18:33:54 10° SW 18:36:59 16° W 18:40:03 10° NW visible
23 Dec 5.7 04:59:56 10° NE 05:03:41 20° E 05:07:24 10° SE visible
23 Dec 3.6 16:16:21 10° SE 16:20:52 33° ENE 16:25:23 10° N visible
23 Dec 4.7 17:55:17 10° SSW 17:59:51 33° W 18:04:27 10° NNW visible
